Mineral Wells, TX

11:23 AM CST on November 24, 2017 (GMT -0600)
Mineral Wells

Weather History for KMWL - July, 2013

Change the Weather History Date:

Tuesday, July 30, 2013

  Actual Average Record
Temperature  
Mean Temperature 87 °F -  
Max Temperature 98 °F 96 °F 105 °F (1998)
Min Temperature 77 °F 72 °F 69 °F (2000)
Cooling Degree Days 22    
Growing Degree Days 37 (Base 50)    
Moisture  
Dew Point 67 °F    
Average Humidity 53    
Maximum Humidity 76    
Minimum Humidity 35    
Precipitation  
Precipitation 0.00 in - - ()
Sea Level Pressure  
Sea Level Pressure 29.95 in    
Wind  
Wind Speed 11 mph (SSE)    
Max Wind Speed 17 mph    
Max Gust Speed 23 mph    
Visibility 10 miles    
Events      
Averages and records for this station are not official NWS values.
T = Trace of Precipitation, MM = Missing Value Source: NWS Daily Summary

Daily Weather History Graph

Daily Weather History Graph

Search for Another Location

Airport or City:

Trip Planner

Search our weather history database for the weather conditions in past years. The results will help you decide how hot, cold, wet, or windy it might be!

Date:

Astronomy

Jul. 30, 2013 Rise Set
Actual Time 6:44 AM CDT 8:31 PM CDT
Civil Twilight 6:17 AM CDT 8:58 PM CDT
Nautical Twilight 5:45 AM CDT 9:31 PM CDT
Astronomical Twilight 5:10 AM CDT 10:05 PM CDT
Moon 1:01 AM CDT (7/30) 2:54 PM CDT (7/30)
Length of Visible Light 14h 41m
Length of Day
13h 47m
Last Quarter, 41% of the Moon is Illuminated
Jul 30
Last Quarter
Aug 6
New
Aug 14
First Quarter
Aug 20
Full
Aug 28
Last Quarter

Hourly Weather History & Observations

Time (CDT) Temp. Heat Index Dew Point Humidity Pressure Visibility Wind Dir Wind Speed Gust Speed Precip Events Conditions
12:53 AM 84.0 °F 84.5 °F 62.1 °F 47% 29.91 in 10.0 mi SSE 13.8 mph - N/A   Clear
1:53 AM 84.0 °F 84.9 °F 63.0 °F 49% 29.90 in 10.0 mi SSE 17.3 mph 23.0 mph N/A   Clear
2:53 AM 82.0 °F 83.8 °F 64.9 °F 56% 29.92 in 10.0 mi SSE 13.8 mph 20.7 mph N/A   Clear
3:53 AM 81.0 °F 83.0 °F 66.0 °F 60% 29.93 in 10.0 mi SSE 10.4 mph 23.0 mph N/A   Clear
4:53 AM 80.1 °F 82.3 °F 66.9 °F 64% 29.95 in 10.0 mi SSE 8.1 mph - N/A   Clear
5:53 AM 78.1 °F - 68.0 °F 71% 29.97 in 10.0 mi SSE 5.8 mph - N/A   Clear
6:53 AM 77.0 °F - 69.1 °F 76% 30.00 in 10.0 mi SSE 5.8 mph - N/A   Mostly Cloudy
7:53 AM 78.1 °F - 70.0 °F 76% 30.01 in 10.0 mi SSE 6.9 mph - N/A   Clear
8:53 AM 79.0 °F - 70.0 °F 74% 30.01 in 10.0 mi SSE 10.4 mph - N/A   Clear
9:53 AM 82.9 °F 87.5 °F 71.1 °F 67% 30.01 in 10.0 mi South 11.5 mph 16.1 mph N/A   Clear
10:53 AM 86.0 °F 91.5 °F 71.1 °F 61% 29.99 in 10.0 mi South 11.5 mph 20.7 mph N/A   Clear
11:53 AM 89.1 °F 94.1 °F 70.0 °F 53% 29.98 in 10.0 mi South 16.1 mph 23.0 mph N/A   Clear
12:53 PM 93.0 °F 97.9 °F 69.1 °F 45% 29.96 in 10.0 mi South 13.8 mph 19.6 mph N/A   Clear
1:53 PM 95.0 °F 99.5 °F 68.0 °F 41% 29.95 in 10.0 mi SSW 11.5 mph - N/A   Clear
2:53 PM 97.0 °F 99.9 °F 64.9 °F 35% 29.94 in 10.0 mi SSW 10.4 mph 20.7 mph N/A   Clear
3:53 PM 96.1 °F 99.3 °F 66.0 °F 37% 29.93 in 10.0 mi South 10.4 mph - N/A   Clear
4:53 PM 97.0 °F 100.4 °F 66.0 °F 36% 29.92 in 10.0 mi SSW 9.2 mph 17.3 mph N/A   Clear
5:53 PM 97.0 °F 100.4 °F 66.0 °F 36% 29.90 in 10.0 mi South 10.4 mph - N/A   Clear
6:53 PM 96.1 °F 98.3 °F 64.0 °F 35% 29.90 in 10.0 mi South 10.4 mph - N/A   Clear
7:53 PM 93.0 °F 95.9 °F 66.0 °F 41% 29.90 in 10.0 mi SE 6.9 mph - N/A   Clear
8:53 PM 90.0 °F 93.6 °F 68.0 °F 48% 29.92 in 10.0 mi SE 6.9 mph - N/A   Clear
9:53 PM 88.0 °F 90.3 °F 66.0 °F 48% 29.94 in 10.0 mi SSE 6.9 mph - N/A   Clear
10:53 PM 84.9 °F 87.1 °F 66.0 °F 53% 29.94 in 10.0 mi SSE 8.1 mph - N/A   Clear
11:53 PM 81.0 °F 83.3 °F 66.9 °F 62% 29.95 in 10.0 mi SE 5.8 mph - N/A   Clear